CW3996 Weather Reports


Display with metric or nautical units.
time (UTC)temp
F
wind
direction
speed
MPH
gust
MPH
rain 1hr
in
rain 24hr
in
rain mn
in
humidity
%
barometer
mb
20260903205729 84 204 13.0 19.0 0.00 0.00 0.00 4 1013.6
20260903205224 83 178 9.0 21.0 0.00 0.00 0.00 4 1013.7
20260903204737 83 167 9.0 21.0 0.00 0.00 0.00 3 1013.8
20260903204231 84 211 12.0 18.0 0.00 0.00 0.00 3 1013.8
20260903203745 84 211 9.0 19.0 0.00 0.00 0.00 3 1014.0
20260903203221 84 248 12.0 25.0 0.00 0.00 0.00 2 1014.0
20260903202715 83 215 12.0 25.0 0.00 0.00 0.00 3 1014.1
20260903202230 83 238 12.0 24.0 0.00 0.00 0.00 2 1014.2
20260903201743 84 207 14.0 24.0 0.00 0.00 0.00 1 1014.3
20260903201237 84 205 11.0 22.0 0.00 0.00 0.00 2 1014.5
20260903200730 83 217 13.0 22.0 0.00 0.00 0.00 2 1014.4
20260903200225 83 200 15.0 22.0 0.00 0.00 0.00 2 1014.5
20260903195718 83 214 10.0 21.0 0.00 0.00 0.00 2 1014.5
20260903195216 82 243 14.0 21.0 0.00 0.00 0.00 3 1014.7
20260903194731 82 173 10.0 21.0 0.00 0.00 0.00 2 1014.8
20260903194225 82 226 8.0 22.0 0.00 0.00 0.00 2 1014.7
20260903193718 82 188 7.0 22.0 0.00 0.00 0.00 3 1014.8
20260903193233 82 206 14.0 21.0 0.00 0.00 0.00 2 1014.9
20260903192746 82 209 9.0 20.0 0.00 0.00 0.00 2 1015.0
20260903192220 82 191 12.0 24.0 0.00 0.00 0.00 2 1015.1
20260903191754 82 236 17.0 24.0 0.00 0.00 0.00 2 1015.2
20260903191227 82 227 11.0 17.0 0.00 0.00 0.00 3 1015.2
20260903190725 82 200 8.0 21.0 0.00 0.00 0.00 3 1015.3
20260903190241 82 154 12.0 22.0 0.00 0.00 0.00 3 1015.5
20260903185713 81 227 14.0 22.0 0.00 0.00 0.00 2 1015.5
20260903185247 81 239 13.0 22.0 0.00 0.00 0.00 3 1015.5
20260903184720 81 228 11.0 21.0 0.00 0.00 0.00 3 1015.6
20260903184214 81 213 12.0 21.0 0.00 0.00 0.00 4 1015.6
20260903183748 81 198 10.0 16.0 0.00 0.00 0.00 3 1015.8
20260903183221 81 209 8.0 15.0 0.00 0.00 0.00 4 1015.8
20260903182715 79 204 4.0 15.0 0.00 0.00 0.00 7 1015.9
20260903182213 79 210 9.0 17.0 0.00 0.00 0.00 4 1016.0
20260903181727 80 217 10.0 18.0 0.00 0.00 0.00 4 1016.1
20260903181222 79 217 11.0 18.0 0.00 0.00 0.00 4 1016.1
20260903180716 79 191 10.0 21.0 0.00 0.00 0.00 6 1016.2
20260903180231 79 193 10.0 21.0 0.00 0.00 0.00 6 1016.2
20260903175724 78 155 11.0 21.0 0.00 0.00 0.00 4 1016.3
20260903175218 79 203 9.0 18.0 0.00 0.00 0.00 5 1016.4
20260903174732 78 215 7.0 18.0 0.00 0.00 0.00 6 1016.4
20260903174231 78 219 11.0 18.0 0.00 0.00 0.00 5 1016.4
20260903173725 78 204 11.0 20.0 0.00 0.00 0.00 5 1016.6
20260903173219 77 186 14.0 20.0 0.00 0.00 0.00 3 1016.6
20260903172733 77 205 10.0 19.0 0.00 0.00 0.00 5 1016.6
20260903172227 77 213 11.0 19.0 0.00 0.00 0.00 5 1016.6
20260903171721 77 164 9.0 18.0 0.00 0.00 0.00 4 1016.7
20260903171215 76 180 12.0 18.0 0.00 0.00 0.00 4 1016.7
20260903170729 76 206 11.0 17.0 0.00 0.00 0.00 4 1016.6
20260903170228 76 196 7.0 14.0 0.00 0.00 0.00 5 1016.7
20260903165721 76 189 6.0 16.0 0.00 0.00 0.00 5 1016.7
20260903165215 76 225 8.0 17.0 0.00 0.00 0.00 5 1016.6
20260903164729 76 190 8.0 17.0 0.00 0.00 0.00 6 1016.6
20260903164223 76 200 8.0 14.0 0.00 0.00 0.00 5 1016.6
20260903163717 75 213 9.0 14.0 0.00 0.00 0.00 6 1016.6
20260903163231 75 187 10.0 15.0 0.00 0.00 0.00 5 1016.6
20260903162725 75 201 10.0 20.0 0.00 0.00 0.00 4 1016.6
20260903162224 74 197 12.0 20.0 0.00 0.00 0.00 5 1016.7
20260903161717 74 204 12.0 23.0 0.00 0.00 0.00 5 1016.7
20260903161232 74 190 12.0 23.0 0.00 0.00 0.00 5 1016.6
20260903160746 74 192 14.0 19.0 0.00 0.00 0.00 5 1016.6
20260903160240 74 209 10.0 21.0 0.00 0.00 0.00 4 1016.6
20260903155732 74 207 11.0 21.0 0.00 0.00 0.00 5 1016.6
20260903155227 74 204 15.0 21.0 0.00 0.00 0.00 5 1016.6
20260903154720 73 179 8.0 21.0 0.00 0.00 0.00 6 1016.6
20260903154218 73 200 12.0 20.0 0.00 0.00 0.00 5 1016.6
20260903153731 73 196 12.0 20.0 0.00 0.00 0.00 6 1016.6
20260903153225 73 188 12.0 18.0 0.00 0.00 0.00 5 1016.6
20260903152719 73 165 9.0 14.0 0.00 0.00 0.00 7 1016.7
20260903152213 73 172 8.0 18.0 0.00 0.00 0.00 6 1016.7
20260903151747 72 184 9.0 18.0 0.00 0.00 0.00 6 1016.7
20260903151220 72 195 9.0 17.0 0.00 0.00 0.00 7 1016.7
20260903150734 72 154 6.0 15.0 0.00 0.00 0.00 7 1016.7
20260903150228 72 218 10.0 16.0 0.00 0.00 0.00 6 1016.7
20260903145742 71 194 9.0 16.0 0.00 0.00 0.00 7 1016.7
20260903145219 71 189 6.0 14.0 0.00 0.00 0.00 7 1016.7
20260903144732 71 189 8.0 15.0 0.00 0.00 0.00 6 1016.7
20260903144227 71 161 8.0 16.0 0.00 0.00 0.00 6 1016.6
20260903143720 70 141 8.0 18.0 0.00 0.00 0.00 7 1016.6
20260903143215 70 136 9.0 15.0 0.00 0.00 0.00 7 1016.6
20260903142728 70 180 9.0 17.0 0.00 0.00 0.00 7 1016.6
20260903142222 69 175 8.0 17.0 0.00 0.00 0.00 7 1016.4
20260903141720 69 160 8.0 17.0 0.00 0.00 0.00 8 1016.4
20260903141232 68 198 11.0 19.0 0.00 0.00 0.00 8 1016.4
20260903140725 68 202 10.0 19.0 0.00 0.00 0.00 8 1016.2
20260903140220 68 165 9.0 19.0 0.00 0.00 0.00 8 1016.3
20260903135714 68 171 8.0 17.0 0.00 0.00 0.00 7 1016.3
20260903135228 67 193 7.0 17.0 0.00 0.00 0.00 9 1016.2
20260903134722 67 168 8.0 17.0 0.00 0.00 0.00 8 1016.2
20260903134215 67 154 9.0 17.0 0.00 0.00 0.00 8 1016.1
20260903133713 67 164 10.0 17.0 0.00 0.00 0.00 8 1016.0
20260903133227 67 182 7.0 20.0 0.00 0.00 0.00 8 1016.0
20260903132721 67 164 10.0 20.0 0.00 0.00 0.00 8 1015.9
20260903132215 67 153 9.0 19.0 0.00 0.00 0.00 8 1015.9
20260903131729 68 167 10.0 19.0 0.00 0.00 0.00 8 1015.9
20260903131243 67 152 10.0 18.0 0.00 0.00 0.00 7 1015.9
20260903130715 67 162 10.0 18.0 0.00 0.00 0.00 8 1015.8
20260903130231 67 161 10.0 18.0 0.00 0.00 0.00 8 1015.7
20260903125729 67 201 11.0 23.0 0.00 0.00 0.00 8 1015.7
20260903125223 67 173 11.0 23.0 0.00 0.00 0.00 8 1015.6
20260903124716 67 171 11.0 18.0 0.00 0.00 0.00 8 1015.5
20260903124251 67 184 9.0 19.0 0.00 0.00 0.00 7 1015.5
20260903123723 68 181 9.0 19.0 0.00 0.00 0.00 7 1015.6
20260903123217 67 153 10.0 19.0 0.00 0.00 0.00 7 1015.6
20260903122731 67 170 9.0 21.0 0.00 0.00 0.00 7 1015.5
20260903122225 68 176 13.0 21.0 0.00 0.00 0.00 7 1015.5
20260903121723 68 198 13.0 22.0 0.00 0.00 0.00 6 1015.4
20260903121217 68 173 11.0 22.0 0.00 0.00 0.00 6 1015.3
20260903120731 68 143 12.0 23.0 0.00 0.00 0.00 6 1015.4
20260903120226 68 197 13.0 26.0 0.00 0.00 0.00 6 1015.3
20260903115719 68 148 13.0 26.0 0.00 0.00 0.00 6 1015.4
20260903115213 68 206 14.0 22.0 0.00 0.00 0.00 5 1015.4
20260903114727 68 173 10.0 23.0 0.00 0.00 0.00 6 1015.4
20260903114221 68 207 13.0 23.0 0.00 0.00 0.00 5 1015.4
20260903113719 68 187 11.0 22.0 0.00 0.00 0.00 5 1015.4
20260903113213 68 186 10.0 17.0 0.00 0.00 0.00 5 1015.4
20260903112728 68 174 9.0 21.0 0.00 0.00 0.00 5 1015.4
20260903112222 68 181 10.0 21.0 0.00 0.00 0.00 6 1015.4
20260903111715 68 210 12.0 23.0 0.00 0.00 0.00 5 1015.3
20260903111229 69 196 13.0 30.0 0.00 0.00 0.00 5 1015.3
20260903110723 68 159 14.0 30.0 0.00 0.00 0.00 5 1015.3
20260903110222 68 209 11.0 20.0 0.00 0.00 0.00 5 1015.3
20260903105715 69 192 12.0 23.0 0.00 0.00 0.00 5 1015.4
20260903105227 69 203 13.0 25.0 0.00 0.00 0.00 4 1015.3
20260903104721 69 171 12.0 25.0 0.00 0.00 0.00 4 1015.4
20260903104235 69 166 15.0 26.0 0.00 0.00 0.00 4 1015.4
20260903103728 69 163 11.0 25.0 0.00 0.00 0.00 5 1015.3
20260903103222 69 133 15.0 26.0 0.00 0.00 0.00 5 1015.3
20260903102715 69 170 13.0 26.0 0.00 0.00 0.00 5 1015.2
20260903102229 69 185 13.0 25.0 0.00 0.00 0.00 5 1015.2
20260903101727 68 166 14.0 21.0 0.00 0.00 0.00 5 1015.3
20260903101221 68 178 14.0 21.0 0.00 0.00 0.00 5 1015.2
20260903100715 68 198 11.0 25.0 0.00 0.00 0.00 6 1015.2
20260903100230 68 200 11.0 25.0 0.00 0.00 0.00 6 1015.3
20260903095723 68 171 11.0 19.0 0.00 0.00 0.00 6 1015.3
20260903095216 68 181 12.0 20.0 0.00 0.00 0.00 6 1015.3
20260903094731 68 192 11.0 20.0 0.00 0.00 0.00 6 1015.4
20260903094225 68 193 12.0 20.0 0.00 0.00 0.00 6 1015.5
20260903093722 68 198 10.0 21.0 0.00 0.00 0.00 6 1015.5
20260903093216 69 180 12.0 21.0 0.00 0.00 0.00 5 1015.5
20260903092730 68 184 10.0 20.0 0.00 0.00 0.00 6 1015.6
20260903092225 69 159 10.0 20.0 0.00 0.00 0.00 5 1015.5
20260903091718 69 138 13.0 20.0 0.00 0.00 0.00 5 1015.5
20260903091232 69 204 10.0 22.0 0.00 0.00 0.00 5 1015.5
20260903090746 69 192 10.0 22.0 0.00 0.00 0.00 5 1015.4
20260903090240 69 176 11.0 19.0 0.00 0.00 0.00 6 1015.4
20260903085717 69 180 10.0 20.0 0.00 0.00 0.00 6 1015.5
20260903085231 69 159 11.0 23.0 0.00 0.00 0.00 6 1015.4
20260903084725 69 182 12.0 23.0 0.00 0.00 0.00 6 1015.4
20260903084219 69 151 11.0 24.0 0.00 0.00 0.00 6 1015.5
20260903083713 69 171 11.0 24.0 0.00 0.00 0.00 6 1015.5
20260903083227 69 178 10.0 21.0 0.00 0.00 0.00 6 1015.5
20260903082722 69 196 11.0 22.0 0.00 0.00 0.00 6 1015.5
20260903082215 69 191 10.0 22.0 0.00 0.00 0.00 6 1015.5
20260903081713 69 182 12.0 20.0 0.00 0.00 0.00 5 1015.5
20260903081228 69 191 9.0 20.0 0.00 0.00 0.00 5 1015.5
20260903080722 69 186 11.0 21.0 0.00 0.00 0.00 6 1015.6
20260903080217 69 169 12.0 20.0 0.00 0.00 0.00 6 1015.5
20260903075731 68 211 10.0 20.0 0.00 0.00 0.00 6 1015.5
20260903075225 68 185 9.0 20.0 0.00 0.00 0.00 6 1015.5
20260903074719 68 198 9.0 17.0 0.00 0.00 0.00 6 1015.4
20260903074217 68 191 10.0 16.0 0.00 0.00 0.00 6 1015.4
20260903073731 68 196 10.0 17.0 0.00 0.00 0.00 6 1015.4
20260903073225 68 198 9.0 20.0 0.00 0.00 0.00 6 1015.4
20260903072719 69 194 9.0 19.0 0.00 0.00 0.00 6 1015.3
20260903072214 68 218 10.0 19.0 0.00 0.00 0.00 6 1015.3
20260903071728 68 182 8.0 17.0 0.00 0.00 0.00 6 1015.4
20260903071222 69 185 9.0 18.0 0.00 0.00 0.00 5 1015.4
20260903070716 69 184 11.0 18.0 0.00 0.00 0.00 5 1015.4
20260903070216 69 166 11.0 17.0 0.00 0.00 0.00 5 1015.3
20260903065729 69 183 10.0 17.0 0.00 0.00 0.00 5 1015.3
20260903065223 69 173 10.0 17.0 0.00 0.00 0.00 4 1015.3
20260903064716 70 204 8.0 18.0 0.00 0.00 0.00 4 1015.4
20260903064231 70 213 10.0 18.0 0.00 0.00 0.00 4 1015.4
20260903063724 70 166 10.0 16.0 0.00 0.00 0.00 4 1015.3
20260903063218 70 200 11.0 16.0 0.00 0.00 0.00 4 1015.2
20260903062731 70 163 9.0 17.0 0.00 0.00 0.00 4 1015.2
20260903062229 70 189 10.0 18.0 0.00 0.00 0.00 4 1015.1
20260903061723 70 188 11.0 18.0 0.00 0.00 0.00 4 1015.0
20260903061217 71 190 10.0 20.0 0.00 0.00 0.00 3 1015.0
20260903060731 70 181 10.0 20.0 0.00 0.00 0.00 4 1015.0
20260903060226 70 171 12.0 22.0 0.00 0.00 0.00 4 1014.9
20260903055720 71 159 12.0 22.0 0.00 0.00 0.00 3 1014.9
20260903055214 71 188 12.0 20.0 0.00 0.00 0.00 3 1014.8
20260903054728 71 178 11.0 20.0 0.00 0.00 0.00 3 1014.9
20260903054227 71 180 12.0 21.0 0.00 0.00 0.00 3 1014.8
20260903053721 70 206 12.0 21.0 0.00 0.00 0.00 3 1014.7
20260903053215 71 194 10.0 23.0 0.00 0.00 0.00 3 1014.8
20260903052729 71 182 13.0 23.0 0.00 0.00 0.00 3 1014.7
20260903052243 71 181 11.0 24.0 0.00 0.00 0.00 3 1014.8
20260903051716 71 177 10.0 24.0 0.00 0.00 0.00 3 1014.8
20260903051230 71 159 12.0 21.0 0.00 0.00 0.00 2 1014.8
20260903050723 71 194 9.0 20.0 0.00 0.00 0.00 3 1014.9
20260903050243 71 173 13.0 22.0 0.00 0.00 0.00 3 1014.9
20260903045716 71 171 10.0 22.0 0.00 0.00 0.00 2 1014.9
20260903045251 72 217 11.0 21.0 0.00 0.00 0.00 2 1014.9
20260903044724 72 162 12.0 20.0 0.00 0.00 0.00 2 1015.0
20260903044218 72 184 12.0 22.0 0.00 0.00 0.00 2 1015.0
20260903043752 72 217 13.0 22.0 0.00 0.00 0.00 2 1015.0
20260903043225 72 149 12.0 21.0 0.00 0.00 0.00 2 1015.1
20260903042719 72 156 12.0 23.0 0.00 0.00 0.00 2 1015.0
20260903042253 72 162 10.0 23.0 0.00 0.00 0.00 2 1015.0
20260903041726 72 186 13.0 22.0 0.00 0.00 0.00 2 1015.1
20260903041224 72 198 11.0 23.0 0.00 0.00 0.00 3 1015.0
20260903040718 72 200 11.0 23.0 0.00 0.00 0.00 2 1015.0
20260903040213 72 189 10.0 21.0 0.00 0.00 0.00 2 1014.9
20260903035726 72 178 12.0 21.0 0.00 0.00 0.00 2 1014.9
20260903035221 72 201 11.0 21.0 0.00 0.00 0.00 2 1014.8
20260903034714 72 165 10.0 23.0 0.00 0.00 0.00 3 1014.8
20260903034228 72 159 10.0 19.0 0.00 0.00 0.00 2 1014.7
20260903033742 72 193 9.0 20.0 0.00 0.00 0.00 3 1014.7
20260903033239 72 209 10.0 20.0 0.00 0.00 0.00 2 1014.5
20260903032752 73 173 9.0 20.0 0.00 0.00 0.00 2 1014.5
20260903031719 74 201 14.0 25.0 0.00 0.00 0.00 1 1014.5
20260903031213 74 191 14.0 25.0 0.00 0.00 0.00 1 1014.3
20260903030727 74 198 14.0 22.0 0.00 0.00 0.00 1 1014.3
20260903030222 74 186 15.0 22.0 0.00 0.00 0.00 1 1014.2
20260903025736 74 170 13.0 23.0 0.00 0.00 0.00 1 1014.3
20260903025228 75 200 12.0 23.0 0.00 0.00 0.00 1 1014.2
20260903024726 75 215 14.0 23.0 0.00 0.00 0.00 1 1014.2
20260903024220 75 206 16.0 22.0 0.00 0.00 0.00 1 1014.1
20260903023732 76 169 14.0 26.0 0.00 0.00 0.00 1 1013.9
20260903023226 76 195 17.0 26.0 0.00 0.00 0.00 1 1013.8
20260903022719 76 218 16.0 24.0 0.00 0.00 0.00 1 1013.9
20260903022213 76 200 15.0 24.0 0.00 0.00 0.00 1 1013.9
20260903021727 76 217 16.0 24.0 0.00 0.00 0.00 1 1013.8
20260903021222 76 209 15.0 24.0 0.00 0.00 0.00 1 1013.9
20260903020736 76 215 16.0 24.0 0.00 0.00 0.00 1 1013.8
20260903020214 76 215 13.0 23.0 0.00 0.00 0.00 1 1013.8
20260903015748 77 195 12.0 22.0 0.00 0.00 0.00 1 1013.8
20260903015221 77 223 16.0 22.0 0.00 0.00 0.00 1 1013.8
20260903014736 77 214 16.0 25.0 0.00 0.00 0.00 1 1013.8
20260903014229 77 255 12.0 25.0 0.00 0.00 0.00 1 1013.8
20260903013723 77 205 14.0 22.0 0.00 0.00 0.00 1 1013.8
20260903013216 77 225 17.0 25.0 0.00 0.00 0.00 1 1013.8
20260903012730 77 190 14.0 32.0 0.00 0.00 0.00 1 1013.8
20260903012224 78 222 16.0 32.0 0.00 0.00 0.00 1 1013.8
20260903011722 78 205 16.0 27.0 0.00 0.00 0.00 1 1013.8
20260903011216 78 216 17.0 27.0 0.00 0.00 0.00 1 1013.8
20260903010730 78 226 18.0 27.0 0.00 0.00 0.00 1 1013.8
20260903010225 78 224 16.0 24.0 0.00 0.00 0.00 1 1013.8
20260903005718 78 222 13.0 26.0 0.00 0.00 0.00 1 1013.9
20260903005213 78 209 13.0 26.0 0.00 0.00 0.00 1 1014.0
20260903004726 79 220 19.0 27.0 0.00 0.00 0.00 1 1013.9
20260903004220 79 217 19.0 27.0 0.00 0.00 0.00 1 1013.9
20260903003718 79 206 15.0 28.0 0.00 0.00 0.00 1 1013.9
20260903003213 79 221 19.0 28.0 0.00 0.00 0.00 1 1013.9
20260903002747 80 236 20.0 30.0 0.00 0.00 0.00 1 1013.9
20260903002220 80 247 23.0 28.0 0.00 0.00 0.00 1 1013.9
20260903001713 81 228 18.0 30.0 0.00 0.00 0.00 1 1013.9
20260903001228 81 220 22.0 34.0 0.00 0.00 0.00 1 1013.9
20260903000721 82 250 20.0 34.0 0.00 0.00 0.00 1 1013.8
20260903000218 82 224 20.0 36.0 0.00 0.00 0.00 1 1014.0
20260902235713 81 203 23.0 36.0 0.00 0.00 0.00 1 1013.9
20260902235227 81 232 22.0 32.0 0.00 0.00 0.00 1 1013.9
20260902234721 81 214 19.0 35.0 0.00 0.00 0.00 1 1013.8
20260902234215 81 217 21.0 35.0 0.00 0.00 0.00 1 1013.9
20260902233729 81 216 16.0 27.0 0.00 0.00 0.00 1 1013.9
20260902233243 81 215 20.0 27.0 0.00 0.00 0.00 1 1013.9
20260902232716 81 205 20.0 30.0 0.00 0.00 0.00 1 1014.0
20260902232231 81 214 17.0 29.0 0.00 0.00 0.00 1 1014.0
20260902231724 81 195 22.0 29.0 0.00 0.00 0.00 1 1013.9
20260902231223 82 238 19.0 31.0 0.00 0.00 0.00 1 1013.9
20260902230716 82 197 21.0 31.0 0.00 0.00 0.00 1 1014.0
20260902230233 83 205 23.0 33.0 0.00 0.00 0.00 1 1014.0
20260902225726 83 212 22.0 32.0 0.00 0.00 0.00 1 1014.0
20260902225221 83 221 21.0 32.0 0.00 0.00 0.00 1 1014.0
20260902224714 84 224 20.0 31.0 0.00 0.00 0.00 2 1014.0
20260902224228 84 252 22.0 32.0 0.00 0.00 0.00 2 1014.1
20260902223726 84 235 19.0 30.0 0.00 0.00 0.00 2 1014.2
20260902223220 83 204 18.0 30.0 0.00 0.00 0.00 4 1014.3
20260902222714 82 226 23.0 30.0 0.00 0.00 0.00 4 1014.3
20260902222228 81 209 15.0 33.0 0.00 0.00 0.00 3 1014.3
20260902221722 81 219 19.0 32.0 0.00 0.00 0.00 3 1014.4
20260902221216 82 221 19.0 32.0 0.00 0.00 0.00 3 1014.4
20260902220729 82 204 22.0 34.0 0.00 0.00 0.00 3 1014.3
20260902220245 83 234 23.0 36.0 0.00 0.00 0.00 1 1014.6
20260902215717 83 219 21.0 31.0 0.00 0.00 0.00 3 1014.6
20260902215215 83 205 17.0 32.0 0.00 0.00 0.00 5 1014.7
20260902214729 83 213 20.0 32.0 0.00 0.00 0.00 4 1014.7
20260902214223 83 227 19.0 30.0 0.00 0.00 0.00 4 1014.8
20260902213717 83 242 18.0 25.0 0.00 0.00 0.00 4 1014.9
20260902213231 83 210 20.0 36.0 0.00 0.00 0.00 6 1015.0
20260902212724 83 233 16.0 36.0 0.00 0.00 0.00 7 1015.0
20260902212239 82 223 19.0 30.0 0.00 0.00 0.00 7 1015.0
20260902211732 82 219 19.0 29.0 0.00 0.00 0.00 7 1015.0
20260902211246 84 225 22.0 29.0 0.00 0.00 0.00 7 1015.2
20260902210722 84 252 17.0 34.0 0.00 0.00 0.00 8 1015.0
20260902210217 83 236 19.0 34.0 0.00 0.00 0.00 7 1015.1